Location: Caltech
(34.1382°N, 118.1253°W)
Time: 20:19:47
(UTC-07:00)

ASTRO E2 - Visible Passes

Search period start: 23 April 2014 00:00
Search period end: 03 May 2014 00:00
Orbit: 537 x 544 km, 31.4° (Epoch: 22 April)

Date Brightness Start Highest point End Pass type
(mag) Time Alt. Az. Time Alt. Az. Time Alt. Az.
23 Apr 3.7 04:03:34 39° ESE 04:03:34 39° ESE 04:06:24 10° E visible
23 Apr 3.4 05:39:20 10° W 05:43:11 39° SSW 05:47:03 10° SE visible
24 Apr 4.3 03:54:34 29° ESE 03:54:34 29° ESE 03:56:46 10° ESE visible
24 Apr 3.6 05:29:58 11° W 05:33:32 33° SSW 05:37:16 10° SE visible
25 Apr 4.8 03:45:40 21° ESE 03:45:40 21° ESE 03:47:07 10° ESE visible
25 Apr 3.8 05:21:04 14° WSW 05:23:50 28° SSW 05:27:23 10° SE visible
26 Apr 5.4 03:36:53 13° ESE 03:36:53 13° ESE 03:37:25 10° ESE visible
26 Apr 4.1 05:12:18 17° WSW 05:14:07 23° SSW 05:17:25 10° SSE visible
27 Apr 4.3 05:03:42 18° SW 05:04:23 19° SSW 05:07:18 10° SSE visible
28 Apr 4.7 04:55:15 14° SSW 04:55:15 14° SSW 04:56:58 10° S visible
30 Apr 5.3 21:38:49 10° SW 21:39:04 11° SW 21:39:04 11° SW visible
01 May 4.4 21:28:51 10° SW 21:30:43 22° SSW 21:30:43 22° SSW visible
02 May 3.5 21:18:56 10° SW 21:22:10 36° S 21:22:10 36° S visible
